"startDT [UTC]","vpos","CH4 [ppm]","stdev(CH4) [ppm]","CO2 [ppm]","stdev(CO2) [ppm]","H2O_reported [%]","stdev(H2O_reported)","CavityPressure [torr]","CavityTemp [C]","OutletValve","CH4_dry [ppm]","CO2_dry [ppm]","DasTemp [C]","EtalonTemp [C]","WarmBoxTemp [C]","MPVPosition","T_ECpre [C]","T_EC1 [C]","T_EC2 [C]","p_inlet [hPa]","p_in [hPa]","p_out [hPa]","T_inlet [C]","RH_inlet [%]","dwpt_inlet [C]","T_vent [C]","RH_vent [%]","dwpt_vent [C]","flow_vent [l min-1]","flow_inlet [l min-1]","dwpt_sample [C]","T_room [C]"
2015-09-16 00:00:00,3.0,1.87841,0.01380,395.990,3.537,0.1388,0.2172,139.981,45.001,31596.67290,1.88273,396.566,36.561,45.068,45.000,0.00,0.09,-272.74,-272.80,-8,488,-954,21.4,20.8,-2.0,21.6,21.2,-1.6,5.73,1.95,0.1,27.7
2015-09-16 00:01:00,3.0,1.87579,0.00044,396.884,0.037,0.0283,0.0016,139.998,45.001,31588.16256,1.87629,397.018,36.591,45.068,45.000,0.00,0.09,-272.74,-272.80,-8,488,-954,21.4,20.7,-2.1,21.6,21.0,-1.6,5.73,1.77,0.1,27.8
2015-09-16 00:02:00,3.0,1.87571,0.00047,397.155,0.099,0.0260,0.0020,139.999,45.001,31588.40079,1.87621,397.275,36.631,45.068,45.001,0.00,0.10,-272.74,-272.80,-8,489,-954,21.4,20.8,-2.0,21.6,21.0,-1.6,5.73,2.00,0.0,27.8
2015-09-16 00:03:00,3.0,1.87555,0.00034,397.385,0.055,0.0231,0.0025,139.997,45.001,31588.48705,1.87597,397.492,36.681,45.068,45.001,0.00,0.09,-272.74,-272.80,-9,489,-955,21.4,20.6,-2.0,21.6,21.0,-1.6,5.73,2.12,0.1,27.8
2015-09-16 00:04:00,3.0,1.87592,0.00043,397.458,0.038,0.0180,0.0022,140.001,45.001,31589.15671,1.87622,397.544,36.725,45.068,45.001,0.00,0.09,-272.74,-272.80,-9,489,-955,21.5,20.8,-1.9,21.6,21.1,-1.6,5.73,1.83,0.1,27.8
2015-09-16 00:05:00,3.0,1.87579,0.00046,397.493,0.021,0.0142,0.0023,140.003,45.001,31594.28637,1.87608,397.561,36.754,45.068,45.001,0.00,0.10,-272.74,-272.80,-8,490,-955,21.5,20.6,-2.0,21.7,21.1,-1.6,5.73,1.86,0.1,27.9
2015-09-16 00:06:00,3.0,1.87574,0.00032,397.522,0.022,0.0111,0.0020,140.002,45.001,31600.72829,1.87595,397.575,36.782,45.068,45.001,0.00,0.09,-272.74,-272.80,-8,491,-955,21.5,20.7,-1.9,21.7,21.0,-1.6,5.73,2.14,0.1,27.9
2015-09-16 00:07:00,3.0,1.87608,0.00034,397.528,0.030,0.0087,0.0023,140.001,45.001,31605.57872,1.87625,397.570,36.813,45.068,45.001,0.00,0.09,-272.74,-272.81,-9,491,-955,21.6,20.6,-2.0,21.7,21.0,-1.6,5.73,1.94,0.1,27.9
2015-09-16 00:08:00,3.0,1.87575,0.00035,397.536,0.036,0.0071,0.0020,139.998,45.001,31606.91352,1.87588,397.570,36.852,45.068,45.001,0.00,0.10,-272.74,-272.81,-9,492,-955,21.7,20.7,-1.8,21.8,21.1,-1.5,5.73,1.79,0.1,28.0
2015-09-16 00:09:00,3.0,1.87582,0.00038,397.544,0.036,0.0060,0.0019,140.000,45.001,31609.95135,1.87594,397.573,36.875,45.068,45.001,0.00,0.10,-272.74,-272.80,-8,492,-955,21.7,20.3,-2.1,21.8,20.8,-1.7,5.73,2.08,0.1,28.0
2015-09-16 00:10:00,3.0,1.87581,0.00033,397.560,0.029,0.0054,0.0019,139.999,45.001,31612.82502,1.87591,397.586,36.906,45.068,45.001,0.00,0.10,-272.74,-272.80,-8,492,-955,21.8,20.1,-2.1,21.8,20.5,-1.9,5.73,2.05,0.1,28.0
2015-09-16 00:11:00,3.0,1.87566,0.00033,397.559,0.028,0.0047,0.0025,139.999,45.001,31615.79685,1.87574,397.581,36.941,45.068,45.001,0.00,0.09,-272.74,-272.80,-9,492,-955,21.8,20.6,-1.8,21.8,21.0,-1.5,5.73,1.77,0.0,28.1
2015-09-16 00:12:00,3.0,1.87556,0.00046,397.550,0.035,0.0039,0.0015,139.999,45.001,31617.56183,1.87562,397.569,36.979,45.068,45.001,0.00,0.10,-272.75,-272.80,-9,492,-955,21.8,20.5,-1.8,21.8,21.0,-1.5,5.73,1.98,0.1,28.1
2015-09-16 00:13:00,3.0,1.87582,0.00041,397.557,0.030,0.0041,0.0025,139.998,45.001,31617.49219,1.87588,397.575,37.007,45.068,45.001,0.00,0.10,-272.74,-272.80,-8,492,-955,21.9,20.3,-1.9,21.9,20.7,-1.6,5.73,2.12,0.1,28.1
2015-09-16 00:14:00,3.0,1.87576,0.00037,397.586,0.034,0.0039,0.0018,140.001,45.001,31617.68992,1.87587,397.605,37.050,45.068,45.001,0.00,0.09,-272.74,-272.81,-8,492,-955,21.9,20.3,-1.9,22.0,20.8,-1.5,5.73,1.81,0.1,28.2
2015-09-16 00:15:00,3.0,1.87588,0.00034,397.582,0.038,0.0027,0.0022,140.001,45.001,31618.80600,1.87591,397.595,37.063,45.068,45.001,0.00,0.10,-272.74,-272.80,-9,493,-955,21.9,20.6,-1.7,22.0,20.9,-1.4,5.73,1.89,0.1,28.2
2015-09-16 00:16:00,3.0,1.87573,0.00047,397.578,0.022,0.0025,0.0015,139.999,45.001,31620.90323,1.87581,397.590,37.072,45.068,45.001,0.00,0.10,-272.74,-272.80,-9,493,-955,22.0,20.4,-1.7,22.0,20.9,-1.4,5.73,2.14,0.1,28.2
2015-09-16 00:17:00,3.0,1.87586,0.00039,397.599,0.040,0.0024,0.0020,140.000,45.000,31623.07489,1.87588,397.610,37.119,45.068,45.001,0.00,0.10,-272.73,-272.80,-8,493,-955,22.0,20.0,-2.0,22.1,20.5,-1.6,5.73,1.87,0.1,28.3
2015-09-16 00:18:00,3.0,1.87608,0.00041,397.600,0.033,0.0025,0.0018,139.997,45.000,31622.78342,1.87611,397.612,37.126,45.068,45.000,0.00,0.09,-272.74,-272.80,-8,493,-955,22.0,20.0,-2.0,22.1,20.4,-1.6,5.73,1.83,0.1,28.3
2015-09-16 00:19:00,3.0,1.87579,0.00043,397.591,0.042,0.0018,0.0014,139.998,45.000,31625.50446,1.87586,397.600,37.162,45.068,45.001,0.00,0.10,-272.74,-272.80,-9,493,-956,22.1,20.0,-2.0,22.1,20.5,-1.6,5.73,2.13,0.1,28.3
2015-09-16 00:20:00,0.0,1.91182,0.01298,389.093,3.526,0.5356,0.2162,140.011,45.000,31774.66063,1.92047,391.732,37.197,45.068,45.000,0.00,0.10,-272.73,-272.80,-10,515,-955,22.1,19.6,-2.2,22.1,20.2,-1.7,5.73,1.97,0.1,28.4
2015-09-16 00:21:00,0.0,1.91593,0.00053,387.246,0.060,0.6603,0.0119,140.001,45.001,31797.71417,1.92859,390.385,37.210,45.067,45.000,0.00,0.10,-272.73,-272.81,-10,515,-955,22.1,19.9,-2.0,22.2,20.2,-1.7,5.73,1.82,0.1,28.4
2015-09-16 00:22:00,0.0,1.91603,0.00049,387.150,0.038,0.6754,0.0065,140.000,45.000,31805.75000,1.92905,390.362,37.190,45.067,45.000,0.00,0.10,-272.74,-272.80,-10,516,-955,22.2,20.1,-1.8,22.2,20.7,-1.4,5.73,1.91,0.1,28.4
2015-09-16 00:23:00,0.0,1.91582,0.00034,387.151,0.046,0.6717,0.0086,140.001,45.000,31811.92078,1.92876,390.343,37.130,45.067,45.000,0.00,0.10,-272.74,-272.80,-10,516,-955,22.2,19.9,-1.9,22.3,20.4,-1.5,5.73,2.07,0.1,28.5
2015-09-16 00:24:00,0.0,1.91530,0.00036,387.128,0.046,0.6726,0.0092,139.999,44.999,31813.69464,1.92825,390.328,37.023,45.066,44.999,0.00,0.10,-272.74,-272.80,-10,516,-955,22.2,20.0,-1.9,22.2,20.6,-1.4,5.73,2.08,0.1,28.5
2015-09-16 00:25:00,0.0,1.91514,0.00046,387.126,0.070,0.6757,0.0119,139.998,44.999,31813.66272,1.92818,390.337,36.871,45.066,44.999,0.00,0.10,-272.74,-272.80,-10,517,-955,22.2,20.0,-1.8,22.2,20.5,-1.5,5.73,2.02,0.1,28.4
2015-09-16 00:26:00,0.0,1.91504,0.00041,387.088,0.045,0.6778,0.0036,140.000,44.998,31813.15543,1.92808,390.311,36.670,45.065,44.998,0.00,0.10,-272.73,-272.79,-10,517,-954,22.1,20.1,-1.8,22.2,20.5,-1.5,5.73,1.99,0.1,28.3
2015-09-16 00:27:00,0.0,1.91533,0.00034,387.077,0.047,0.6847,0.0059,140.000,44.997,31808.85380,1.92850,390.334,36.454,45.065,44.997,0.00,0.10,-272.74,-272.79,-10,517,-954,22.1,20.2,-1.8,22.2,20.7,-1.4,5.73,1.97,0.1,28.2
2015-09-16 00:28:00,0.0,1.91544,0.00039,387.179,0.034,0.6636,0.0043,140.001,44.996,31804.14352,1.92818,390.332,36.234,45.064,44.997,0.00,0.10,-272.74,-272.81,-10,517,-954,22.1,19.7,-2.1,22.2,20.3,-1.7,5.73,1.97,0.1,28.1
2015-09-16 00:29:00,0.0,1.91549,0.00047,387.127,0.051,0.6749,0.0094,139.999,44.995,31797.87630,1.92850,390.336,36.016,45.064,44.997,0.00,0.10,-272.73,-272.79,-10,517,-953,22.0,20.0,-2.0,22.1,20.5,-1.6,5.73,1.97,0.1,28.0
2015-09-16 00:30:00,0.0,1.91526,0.00048,387.151,0.042,0.6683,0.0076,140.002,44.995,31790.72987,1.92812,390.330,35.814,45.064,44.997,0.00,0.10,-272.73,-272.80,-10,517,-953,21.9,19.9,-2.1,22.1,20.4,-1.7,5.73,1.97,0.1,28.0
2015-09-16 00:31:00,0.0,1.91567,0.00047,387.189,0.031,0.6562,0.0054,140.000,44.996,31783.66330,1.92826,390.307,35.622,45.065,44.998,0.00,0.10,-272.74,-272.80,-10,517,-953,21.9,19.6,-2.3,22.0,20.1,-1.9,5.73,1.96,0.1,28.0
2015-09-16 00:32:00,0.0,1.91551,0.00046,387.202,0.038,0.6566,0.0044,140.001,44.996,31779.86970,1.92818,390.323,35.484,45.066,44.999,0.00,0.10,-272.74,-272.80,-10,517,-953,21.9,19.6,-2.3,22.0,20.1,-1.9,5.73,1.95,0.1,27.9
2015-09-16 00:33:00,0.0,1.91600,0.00062,387.136,0.067,0.6679,0.0092,139.998,44.997,31773.99168,1.92887,390.310,35.436,45.067,45.000,0.00,0.10,-272.73,-272.80,-10,517,-953,21.9,20.0,-2.1,22.0,20.3,-1.8,5.73,1.91,0.1,27.9
2015-09-16 00:34:00,0.0,1.91557,0.00056,387.194,0.049,0.6586,0.0066,140.001,44.998,31773.46190,1.92824,390.324,35.413,45.068,45.001,0.00,0.10,-272.74,-272.81,-10,517,-953,21.9,19.7,-2.3,22.0,20.2,-1.9,5.73,1.88,0.0,27.9
2015-09-16 00:35:00,0.0,1.91552,0.00040,387.145,0.065,0.6702,0.0103,140.001,44.999,31776.29845,1.92840,390.330,35.441,45.069,45.002,0.00,0.10,-272.74,-272.81,-10,517,-953,21.9,20.1,-2.0,22.0,20.3,-1.8,5.73,1.92,0.0,27.9
2015-09-16 00:36:00,0.0,1.91437,0.00037,387.094,0.049,0.6733,0.0097,140.002,45.000,31777.45050,1.92734,390.297,35.503,45.069,45.002,0.00,0.10,-272.74,-272.80,-10,517,-953,21.9,20.1,-2.0,22.0,20.6,-1.6,5.73,2.02,0.0,27.9
2015-09-16 00:37:00,0.0,1.91455,0.00036,387.145,0.045,0.6672,0.0059,140.004,45.001,31779.98892,1.92741,390.316,35.579,45.069,45.002,0.00,0.10,-272.74,-272.80,-10,517,-953,21.8,20.0,-2.1,22.0,20.4,-1.8,5.73,2.10,0.0,27.9
2015-09-16 00:38:00,0.0,1.91401,0.00030,387.083,0.048,0.6676,0.0079,139.998,45.002,31781.41645,1.92685,390.258,35.657,45.069,45.002,0.00,0.09,-272.75,-272.81,-10,517,-953,21.8,20.0,-2.1,22.0,20.5,-1.7,5.73,2.07,0.1,27.9
2015-09-16 00:39:00,0.0,1.91420,0.00049,387.109,0.058,0.6656,0.0104,140.001,45.002,31782.82756,1.92699,390.269,35.740,45.069,45.001,0.00,0.10,-272.74,-272.80,-10,517,-953,21.8,20.0,-2.1,21.9,20.3,-1.9,5.73,1.95,0.0,27.9
2015-09-16 00:40:00,0.0,1.91409,0.00039,387.109,0.046,0.6663,0.0076,139.999,45.002,31784.09718,1.92690,390.278,35.836,45.069,45.001,0.00,0.10,-272.74,-272.79,-10,517,-953,21.8,20.0,-2.1,22.0,20.4,-1.8,5.73,1.86,0.0,27.9
2015-09-16 00:41:00,0.0,1.91430,0.00033,387.094,0.039,0.6693,0.0059,140.000,45.002,31785.24895,1.92716,390.275,35.915,45.068,45.000,0.00,0.10,-272.75,-272.80,-10,517,-953,21.8,20.1,-2.1,22.0,20.4,-1.7,5.73,1.89,0.0,27.9
2015-09-16 00:42:00,0.0,1.91451,0.00049,386.938,0.070,0.6927,0.0097,140.001,45.002,31792.53530,1.92785,390.231,35.996,45.068,45.000,0.00,0.10,-272.75,-272.80,-10,517,-953,21.8,20.8,-1.6,21.9,20.9,-1.5,5.73,2.02,0.0,27.9
2015-09-16 00:43:00,0.0,1.91389,0.00053,387.016,0.076,0.6757,0.0122,140.000,45.002,31791.83547,1.92692,390.228,36.069,45.067,45.000,0.00,0.10,-272.74,-272.80,-9,517,-953,21.8,20.2,-2.0,22.0,20.9,-1.5,5.73,2.11,0.0,27.9
2015-09-16 00:44:00,0.0,1.91421,0.00039,387.100,0.035,0.6647,0.0065,140.001,45.001,31795.05814,1.92696,390.258,36.148,45.067,45.000,0.00,0.09,-272.74,-272.81,-9,517,-954,21.8,19.9,-2.2,21.9,20.4,-1.8,5.73,2.06,0.0,28.0
2015-09-16 00:45:00,0.0,1.91408,0.00036,387.133,0.040,0.6600,0.0072,140.003,45.001,31796.37682,1.92681,390.271,36.225,45.067,45.000,0.00,0.09,-272.74,-272.81,-10,517,-954,21.8,19.8,-2.3,21.9,20.3,-1.8,5.73,1.91,0.0,28.0
2015-09-16 00:46:00,0.0,1.91353,0.00043,387.162,0.051,0.6503,0.0076,140.001,45.001,31798.37851,1.92604,390.252,36.287,45.067,45.000,0.00,0.10,-272.73,-272.80,-10,517,-954,21.8,19.5,-2.5,22.0,20.0,-2.0,5.73,1.83,0.0,28.0
2015-09-16 00:47:00,0.0,1.91370,0.00038,387.159,0.038,0.6543,0.0071,140.000,45.001,31798.99979,1.92628,390.268,36.358,45.067,45.000,0.00,0.10,-272.74,-272.80,-10,517,-954,21.8,19.6,-2.4,21.9,19.9,-2.1,5.73,1.97,0.0,28.0
2015-09-16 00:48:00,0.0,1.91334,0.00029,387.097,0.043,0.6662,0.0057,139.999,45.001,31801.24096,1.92616,390.264,36.433,45.068,45.000,0.00,0.09,-272.75,-272.81,-10,517,-954,21.8,20.0,-2.2,22.0,20.3,-1.8,5.73,2.12,0.0,28.0
2015-09-16 00:49:00,0.0,1.91306,0.00042,387.082,0.057,0.6648,0.0113,140.002,45.001,31804.43239,1.92585,390.242,36.488,45.068,45.000,0.00,0.10,-272.74,-272.80,-10,517,-954,21.8,20.0,-2.2,22.0,20.4,-1.8,5.73,2.07,-0.0,28.1
2015-09-16 00:50:00,0.0,1.91293,0.00034,387.095,0.048,0.6619,0.0075,140.001,45.001,31806.27951,1.92562,390.241,36.541,45.068,45.000,0.00,0.10,-272.73,-272.80,-9,517,-954,21.8,19.8,-2.3,21.9,20.3,-1.9,5.73,1.90,0.0,28.1
2015-09-16 00:51:00,0.0,1.91343,0.00041,387.120,0.059,0.6552,0.0081,140.002,45.001,31807.26680,1.92601,390.234,36.573,45.068,45.000,0.00,0.10,-272.74,-272.80,-9,517,-954,21.8,19.7,-2.4,22.0,20.0,-2.0,5.73,1.85,0.0,28.1
2015-09-16 00:52:00,0.0,1.91328,0.00054,387.025,0.074,0.6704,0.0085,140.000,45.001,31808.52572,1.92618,390.211,36.628,45.068,45.001,0.00,0.09,-272.74,-272.80,-10,517,-954,21.8,20.1,-2.1,22.0,20.4,-1.8,5.73,1.98,0.0,28.1
2015-09-16 00:53:00,0.0,1.91292,0.00044,387.096,0.067,0.6600,0.0096,140.000,45.001,31810.68699,1.92560,390.231,36.698,45.068,45.001,0.00,0.10,-272.74,-272.80,-10,517,-954,21.8,19.8,-2.3,21.9,20.3,-1.8,5.73,2.13,0.0,28.1
2015-09-16 00:54:00,0.0,1.91288,0.00040,387.081,0.060,0.6596,0.0068,139.998,45.001,31812.58275,1.92557,390.215,36.752,45.068,45.000,0.00,0.09,-272.74,-272.80,-10,517,-954,21.8,19.8,-2.3,22.0,20.1,-2.0,5.73,2.05,-0.0,28.1
2015-09-16 00:55:00,0.0,1.91250,0.00047,387.040,0.081,0.6637,0.0088,139.998,45.001,31815.77491,1.92529,390.192,36.806,45.068,45.000,0.00,0.09,-272.74,-272.80,-10,517,-955,21.8,19.9,-2.3,22.0,20.3,-1.8,5.73,1.88,0.0,28.1
2015-09-16 00:56:00,0.0,1.91249,0.00042,387.011,0.055,0.6677,0.0058,139.998,45.001,31816.72223,1.92531,390.186,36.818,45.068,45.000,0.00,0.10,-272.74,-272.80,-10,517,-955,21.8,20.1,-2.2,22.0,20.3,-1.8,5.73,1.85,0.0,28.1
2015-09-16 00:57:00,0.0,1.91202,0.00039,387.013,0.063,0.6645,0.0082,139.999,45.001,31819.30507,1.92478,390.169,36.844,45.068,45.001,0.00,0.10,-272.74,-272.80,-9,517,-955,21.8,19.9,-2.2,22.0,20.3,-1.8,5.73,2.02,0.0,28.1
2015-09-16 00:58:00,0.0,1.91253,0.00047,386.918,0.052,0.6862,0.0107,139.998,45.001,31817.20777,1.92567,390.180,36.873,45.068,45.000,0.00,0.09,-272.74,-272.80,-9,517,-955,21.8,20.7,-1.7,22.0,20.8,-1.5,5.73,2.13,0.0,28.2
2015-09-16 00:59:00,0.0,1.91304,0.00045,387.030,0.075,0.6665,0.0122,140.000,45.001,31819.10588,1.92587,390.197,36.896,45.068,45.001,0.00,0.09,-272.74,-272.81,-10,517,-955,21.8,20.0,-2.1,21.9,20.5,-1.7,5.73,2.01,0.0,28.2
2015-09-16 01:00:00,0.0,1.91274,0.00050,386.932,0.061,0.6836,0.0073,139.999,45.001,31819.67581,1.92588,390.181,36.950,45.068,45.001,0.00,0.10,-272.73,-272.80,-10,517,-955,21.8,20.5,-1.8,22.0,20.7,-1.5,5.73,1.84,0.0,28.2
2015-09-16 01:01:00,0.0,1.91254,0.00040,387.010,0.060,0.6727,0.0083,140.000,45.001,31822.57028,1.92547,390.208,37.002,45.068,45.001,0.00,0.10,-272.74,-272.80,-10,517,-955,21.8,20.1,-2.1,22.0,20.7,-1.5,5.73,1.90,0.0,28.2
2015-09-16 01:02:00,0.0,1.91257,0.00038,387.016,0.047,0.6661,0.0080,139.998,45.001,31823.58824,1.92535,390.181,37.042,45.068,45.001,0.00,0.10,-272.75,-272.80,-10,517,-955,21.8,19.9,-2.2,22.0,20.3,-1.8,5.73,2.09,0.0,28.3
2015-09-16 01:03:00,0.0,1.91273,0.00034,387.080,0.057,0.6610,0.0089,140.000,45.001,31823.47008,1.92544,390.220,37.072,45.068,45.000,0.00,0.10,-272.74,-272.80,-9,517,-955,21.8,19.8,-2.3,22.0,20.2,-1.9,5.73,2.10,0.0,28.3
2015-09-16 01:04:00,0.0,1.91307,0.00046,387.062,0.069,0.6638,0.0122,139.999,45.001,31824.83739,1.92583,390.216,37.123,45.068,45.000,0.00,0.10,-272.74,-272.80,-9,517,-955,21.8,19.9,-2.3,22.0,20.4,-1.8,5.73,1.90,0.0,28.3
2015-09-16 01:05:00,0.0,1.91291,0.00042,387.101,0.039,0.6518,0.0047,140.001,45.001,31826.44195,1.92544,390.198,37.138,45.067,45.000,0.00,0.10,-272.74,-272.80,-10,517,-955,21.9,19.5,-2.5,22.0,19.9,-2.1,5.73,1.83,0.0,28.3
2015-09-16 01:06:00,0.0,1.91299,0.00053,387.036,0.034,0.6655,0.0041,139.999,45.001,31828.15813,1.92576,390.198,37.184,45.067,45.000,0.00,0.10,-272.75,-272.80,-10,517,-955,21.8,19.9,-2.2,22.0,20.2,-1.9,5.73,2.01,0.0,28.4
2015-09-16 01:07:00,0.0,1.91274,0.00046,386.975,0.061,0.6780,0.0075,139.998,45.001,31828.49606,1.92578,390.197,37.188,45.067,45.000,0.00,0.10,-272.74,-272.79,-10,517,-955,21.8,20.3,-1.9,22.0,20.5,-1.7,5.73,2.14,0.0,28.3
2015-09-16 01:08:00,0.0,1.91282,0.00049,386.942,0.053,0.6837,0.0070,140.002,45.001,31829.43991,1.92598,390.192,37.185,45.067,45.000,0.00,0.10,-272.74,-272.80,-10,517,-955,21.8,20.4,-1.8,22.0,20.8,-1.4,5.73,1.99,0.0,28.3
2015-09-16 01:09:00,0.0,1.91281,0.00042,387.009,0.047,0.6714,0.0082,140.000,45.000,31830.42758,1.92568,390.199,37.131,45.067,45.000,0.00,0.10,-272.74,-272.81,-10,517,-955,21.8,20.1,-2.1,22.0,20.5,-1.7,5.73,1.85,0.0,28.3
2015-09-16 01:10:00,0.0,1.91284,0.00043,387.029,0.041,0.6632,0.0060,140.001,45.000,31832.07473,1.92559,390.181,37.066,45.067,44.999,0.00,0.10,-272.73,-272.80,-10,517,-955,21.8,19.9,-2.2,22.0,20.4,-1.8,5.73,1.89,0.0,28.3
2015-09-16 01:11:00,0.0,1.91268,0.00039,387.056,0.034,0.6594,0.0070,140.000,44.999,31829.03581,1.92533,390.190,36.940,45.066,44.999,0.00,0.10,-272.74,-272.80,-10,517,-955,21.7,19.8,-2.4,21.9,20.2,-1.9,5.73,1.96,0.0,28.2
2015-09-16 01:12:00,0.0,1.91244,0.00031,387.046,0.051,0.6583,0.0076,139.999,44.998,31827.44814,1.92514,390.173,36.748,45.065,44.998,0.00,0.09,-272.74,-272.80,-10,517,-955,21.7,19.8,-2.4,21.9,20.2,-2.0,5.73,1.98,0.0,28.1
2015-09-16 01:13:00,0.0,1.91269,0.00038,387.056,0.054,0.6563,0.0120,139.997,44.997,31821.62703,1.92525,390.172,36.520,45.065,44.997,0.00,0.10,-272.74,-272.80,-10,517,-954,21.7,19.8,-2.4,21.9,20.0,-2.1,5.73,1.98,-0.0,28.0
2015-09-16 01:14:00,0.0,1.91252,0.00038,387.086,0.039,0.6530,0.0065,140.000,44.996,31814.60873,1.92512,390.190,36.273,45.064,44.997,0.00,0.10,-272.74,-272.80,-10,517,-954,21.6,19.7,-2.5,21.8,20.2,-2.0,5.73,1.97,0.0,28.0
2015-09-16 01:15:00,0.0,1.91253,0.00047,387.087,0.043,0.6542,0.0091,139.998,44.995,31806.17185,1.92508,390.194,36.044,45.064,44.997,0.00,0.10,-272.74,-272.81,-10,517,-953,21.6,19.8,-2.4,21.8,20.1,-2.1,5.73,1.97,0.0,27.9
2015-09-16 01:16:00,0.0,1.91205,0.00030,387.049,0.056,0.6578,0.0064,139.997,44.995,31796.15826,1.92469,390.175,35.824,45.064,44.997,0.00,0.10,-272.74,-272.81,-10,517,-953,21.6,20.0,-2.4,21.8,20.3,-2.0,5.73,1.96,0.0,27.8
2015-09-16 01:17:00,0.0,1.91202,0.00051,387.010,0.058,0.6649,0.0098,139.997,44.995,31787.41423,1.92476,390.168,35.625,45.065,44.998,0.00,0.10,-272.73,-272.80,-10,517,-953,21.5,20.3,-2.2,21.7,20.4,-2.0,5.73,1.98,-0.0,27.8
2015-09-16 01:18:00,0.0,1.91265,0.00036,386.939,0.053,0.6801,0.0100,139.998,44.996,31779.55729,1.92573,390.173,35.478,45.066,44.999,0.00,0.10,-272.74,-272.80,-10,517,-952,21.5,20.8,-1.9,21.6,20.9,-1.7,5.73,1.98,-0.0,27.7
2015-09-16 01:19:00,0.0,1.91195,0.00030,386.977,0.042,0.6722,0.0046,140.000,44.997,31777.12924,1.92490,390.171,35.363,45.067,45.000,0.00,0.10,-272.75,-272.80,-10,517,-952,21.4,20.6,-2.1,21.6,20.8,-1.7,5.73,2.00,-0.0,27.6
2015-09-16 01:20:00,0.0,1.91184,0.00037,386.947,0.062,0.6791,0.0091,140.003,44.997,31773.98497,1.92489,390.174,35.314,45.067,45.000,0.00,0.10,-272.74,-272.80,-10,516,-952,21.4,20.8,-1.9,21.6,21.0,-1.6,5.73,2.03,-0.0,27.6
2015-09-16 01:21:00,0.0,1.91227,0.00041,386.966,0.068,0.6842,0.0130,139.997,44.999,31770.74554,1.92539,390.219,35.308,45.068,45.001,0.00,0.10,-272.75,-272.80,-10,516,-952,21.4,20.9,-1.9,21.6,21.2,-1.5,5.73,2.08,-0.0,27.6
2015-09-16 01:22:00,0.0,1.91299,0.00052,386.972,0.083,0.6752,0.0126,140.001,45.000,31772.45816,1.92593,390.180,35.339,45.069,45.002,0.00,0.09,-272.75,-272.81,-10,516,-953,21.4,20.8,-2.0,21.7,21.0,-1.7,5.73,2.07,-0.0,27.6
2015-09-16 01:23:00,0.0,1.91345,0.00070,386.846,0.032,0.6951,0.0045,140.001,45.001,31774.31351,1.92683,390.150,35.405,45.069,45.002,0.00,0.09,-272.74,-272.80,-10,516,-953,21.4,21.3,-1.6,21.6,21.5,-1.4,5.73,2.00,-0.0,27.6
2015-09-16 01:24:00,0.0,1.91261,0.00037,386.912,0.091,0.6837,0.0170,140.001,45.001,31776.26812,1.92579,390.164,35.492,45.070,45.002,0.00,0.10,-272.73,-272.80,-9,516,-953,21.4,20.9,-1.9,21.6,21.4,-1.4,5.73,1.90,-0.0,27.6
2015-09-16 01:25:00,0.0,1.91278,0.00042,387.008,0.070,0.6678,0.0111,140.001,45.002,31776.39856,1.92559,390.181,35.588,45.069,45.002,0.00,0.09,-272.74,-272.80,-9,516,-953,21.4,20.5,-2.1,21.6,20.8,-1.8,5.73,1.87,-0.1,27.7
2015-09-16 01:26:00,0.0,1.91271,0.00041,387.033,0.029,0.6625,0.0033,140.002,45.002,31777.37992,1.92543,390.180,35.673,45.069,45.001,0.00,0.10,-272.74,-272.80,-10,516,-953,21.4,20.3,-2.3,21.6,20.6,-1.9,5.73,1.93,-0.1,27.7
2015-09-16 01:27:00,0.0,1.91283,0.00046,386.985,0.031,0.6732,0.0033,139.997,45.002,31777.35478,1.92574,390.185,35.762,45.068,45.000,0.00,0.10,-272.73,-272.80,-10,516,-953,21.4,20.6,-2.1,21.6,20.8,-1.8,5.73,2.04,-0.1,27.7
2015-09-16 01:28:00,0.0,1.91288,0.00039,386.932,0.050,0.6832,0.0064,140.001,45.002,31780.17863,1.92603,390.179,35.850,45.068,45.000,0.00,0.10,-272.74,-272.80,-10,516,-953,21.4,21.0,-1.8,21.6,21.2,-1.6,5.73,2.11,-0.1,27.7
2015-09-16 01:29:00,0.0,1.91358,0.00044,387.035,0.069,0.6697,0.0072,139.999,45.002,31781.30113,1.92646,390.219,35.914,45.068,45.000,0.00,0.09,-272.74,-272.81,-10,516,-953,21.4,20.5,-2.1,21.6,21.0,-1.7,5.73,2.06,-0.1,27.7
2015-09-16 01:30:00,0.0,1.91362,0.00046,387.003,0.048,0.6749,0.0063,139.998,45.002,31781.22800,1.92658,390.211,36.005,45.067,45.000,0.00,0.09,-272.74,-272.80,-10,516,-953,21.4,20.7,-2.0,21.6,20.9,-1.7,5.73,1.94,-0.1,27.8
2015-09-16 01:31:00,0.0,1.91352,0.00037,387.015,0.054,0.6765,0.0063,139.999,45.001,31785.72814,1.92652,390.230,36.080,45.067,45.000,0.00,0.10,-272.74,-272.80,-10,516,-954,21.4,20.7,-2.0,21.6,21.0,-1.6,5.73,1.86,-0.1,27.8
2015-09-16 01:32:00,0.0,1.91451,0.00036,387.144,0.066,0.6569,0.0049,140.001,45.001,31787.68168,1.92711,390.268,36.148,45.067,45.000,0.00,0.10,-272.75,-272.80,-10,516,-954,21.4,20.1,-2.4,21.6,20.6,-1.9,5.73,1.90,-0.1,27.8
2015-09-16 01:33:00,0.0,1.91392,0.00037,387.094,0.064,0.6596,0.0081,140.002,45.001,31791.59901,1.92662,390.227,36.226,45.068,45.000,0.00,0.10,-272.75,-272.80,-9,516,-954,21.4,20.2,-2.3,21.6,20.4,-2.0,5.73,2.04,-0.1,27.8
2015-09-16 01:34:00,0.0,1.91351,0.00056,387.037,0.057,0.6668,0.0089,139.998,45.001,31792.44089,1.92638,390.206,36.294,45.068,45.000,0.00,0.10,-272.74,-272.79,-9,516,-954,21.5,20.4,-2.2,21.7,20.8,-1.8,5.73,2.12,-0.1,27.8
2015-09-16 01:35:00,0.0,1.91353,0.00059,387.021,0.075,0.6719,0.0091,140.000,45.001,31793.64827,1.92638,390.213,36.356,45.068,45.000,0.00,0.09,-272.75,-272.81,-9,516,-954,21.5,20.5,-2.1,21.7,20.8,-1.8,5.73,2.05,-0.1,27.8
2015-09-16 01:36:00,0.0,1.91391,0.00056,387.057,0.046,0.6673,0.0048,140.004,45.001,31796.06949,1.92679,390.228,36.423,45.068,45.000,0.00,0.09,-272.74,-272.81,-10,516,-954,21.5,20.4,-2.2,21.7,20.7,-1.8,5.73,1.89,-0.1,27.9
2015-09-16 01:37:00,0.0,1.91353,0.00054,386.961,0.061,0.6809,0.0070,140.001,45.001,31797.84433,1.92661,390.197,36.472,45.068,45.000,0.00,0.10,-272.73,-272.80,-10,516,-954,21.5,20.8,-1.9,21.7,21.0,-1.6,5.73,1.85,-0.1,27.9
2015-09-16 01:38:00,0.0,1.91396,0.00037,387.089,0.036,0.6583,0.0038,139.997,45.001,31800.10659,1.92660,390.218,36.536,45.068,45.000,0.00,0.09,-272.74,-272.80,-10,516,-954,21.5,20.1,-2.3,21.7,20.6,-1.8,5.73,1.98,-0.1,27.9
2015-09-16 01:39:00,0.0,1.91397,0.00060,386.930,0.086,0.6834,0.0130,139.999,45.001,31800.56819,1.92711,390.177,36.582,45.068,45.000,0.00,0.09,-272.75,-272.80,-10,516,-954,21.5,20.8,-1.8,21.7,21.0,-1.6,5.73,2.11,-0.1,27.9
2015-09-16 01:40:00,0.0,1.91347,0.00029,387.038,0.059,0.6671,0.0061,139.997,45.001,31803.37231,1.92633,390.211,36.626,45.068,45.000,0.00,0.09,-272.74,-272.80,-9,516,-954,21.5,20.4,-2.1,21.7,20.8,-1.7,5.73,2.08,-0.1,27.9
2015-09-16 01:41:00,0.0,1.91246,0.00048,386.881,0.097,0.6833,0.0115,139.999,45.001,31806.74252,1.92560,390.127,36.656,45.068,45.001,0.00,0.10,-272.73,-272.80,-9,516,-954,21.5,20.8,-1.8,21.7,21.1,-1.5,5.73,1.91,-0.1,27.9
2015-09-16 01:42:00,0.0,1.91234,0.00049,386.974,0.053,0.6687,0.0074,139.999,45.001,31806.88597,1.92518,390.151,36.698,45.068,45.001,0.00,0.10,-272.74,-272.81,-9,516,-955,21.5,20.4,-2.1,21.7,20.8,-1.7,5.73,1.84,-0.1,28.0
2015-09-16 01:43:00,0.0,1.91271,0.00042,386.995,0.042,0.6644,0.0056,140.000,45.001,31806.75322,1.92550,390.152,36.752,45.068,45.001,0.00,0.10,-272.74,-272.80,-9,516,-955,21.5,20.2,-2.3,21.7,20.7,-1.8,5.73,1.98,-0.1,28.0
2015-09-16 01:44:00,0.0,1.91245,0.00039,386.919,0.087,0.6757,0.0116,139.999,45.001,31808.79492,1.92541,390.128,36.805,45.068,45.001,0.00,0.09,-272.74,-272.80,-10,516,-955,21.5,20.6,-2.0,21.7,20.8,-1.7,5.73,2.12,-0.1,28.0
2015-09-16 01:45:00,0.0,1.91270,0.00034,386.888,0.053,0.6890,0.0060,140.002,45.001,31810.19258,1.92594,390.163,36.866,45.068,45.001,0.00,0.09,-272.74,-272.80,-10,516,-955,21.5,21.0,-1.8,21.7,21.2,-1.4,5.73,2.07,-0.1,28.0